Roanoke, VA

9:30 AM EDT on May 29, 2017 (GMT -0400)
Roanoke Regional-Woodrum

Weather History for KROA - December, 2014

Change the Weather History Date:

Wednesday, December 24, 2014

  Actual Average Record
Temperature  
Mean Temperature 48 °F 37 °F  
Max Temperature 53 °F 46 °F 72 °F (1933)
Min Temperature 42 °F 29 °F 0 °F (1983)
Degree Days  
Heating Degree Days 17 28  
Month to date heating degree days 539 610  
Since 1 July heating degree days 1417 1414  
Cooling Degree Days 0 0  
Month to date cooling degree days 0 0  
Year to date cooling degree days 1128 1208  
Moisture  
Dew Point 45 °F    
Average Humidity 96    
Maximum Humidity 100    
Minimum Humidity 92    
Precipitation  
Precipitation 0.70 in 0.10 in 1.97 in (1986)
Month to date precipitation 2.22 2.34  
Year to date precipitation 39.11 40.65  
Snow  
Snow 0.00 in - - ()
Month to date snowfall T  
Since 1 July snowfall 0.5  
Snow Depth 0.00 in    
Sea Level Pressure  
Sea Level Pressure 29.76 in    
Wind  
Wind Speed 3 mph (SSE)    
Max Wind Speed 22 mph    
Max Gust Speed 26 mph    
Visibility 6 miles    
Events Rain    
T = Trace of Precipitation, MM = Missing Value Source: NWS Daily Summary

Daily Weather History Graph

Daily Weather History Graph

Search for Another Location

Airport or City:

Trip Planner

Search our weather history database for the weather conditions in past years. The results will help you decide how hot, cold, wet, or windy it might be!

Date:

Astronomy

Dec. 24, 2014 Rise Set
Actual Time 7:31 AM EST 5:07 PM EST
Civil Twilight 7:02 AM EST 5:36 PM EST
Nautical Twilight 6:29 AM EST 6:09 PM EST
Astronomical Twilight 5:58 AM EST 6:41 PM EST
Moon 9:25 AM EST (12/24) 8:26 PM EST (12/24)
Length of Visible Light 10h 34m
Length of Day
9h 35m
Waxing Crescent, 9% of the Moon is Illuminated
Dec 24
Waxing Crescent
Dec 28
First Quarter
Jan 4
Full
Jan 13
Last Quarter
Jan 20
New

Hourly Weather History & Observations

Time (EST) Temp. Windchill Dew Point Humidity Pressure Visibility Wind Dir Wind Speed Gust Speed Precip Events Conditions
12:54 AM 42.1 °F - 41.0 °F 96% 29.99 in 1.0 mi Calm Calm - N/A   Overcast
1:54 AM 42.1 °F - 41.0 °F 96% 29.95 in 1.0 mi North - - 0.03 in Rain Light Rain
2:25 AM 42.1 °F 40.2 °F 41.0 °F 96% 29.94 in 2.0 mi SSW 3.5 mph - 0.01 in Rain Light Rain
2:54 AM 42.8 °F - 41.0 °F 93% 29.95 in 2.0 mi Calm Calm - N/A Rain Light Rain
3:54 AM 42.1 °F - 42.1 °F 100% 29.92 in 2.0 mi Calm Calm - 0.06 in Rain Rain
4:54 AM 42.1 °F - 41.0 °F 96% 29.89 in 2.0 mi Calm Calm - 0.08 in Rain Light Rain
5:54 AM 42.1 °F - 41.0 °F 96% 29.87 in 2.0 mi Calm Calm - 0.16 in Rain Light Rain
6:54 AM 43.0 °F - 42.1 °F 97% 29.86 in 3.0 mi North - - 0.17 in Rain Light Rain
7:28 AM 43.0 °F - 42.1 °F 97% 29.85 in 2.0 mi North - - 0.09 in Rain Light Rain
7:54 AM 43.0 °F - 42.8 °F 99% 29.85 in 2.0 mi Calm Calm - 0.10 in Rain Light Rain
8:54 AM 44.1 °F - 42.1 °F 93% 29.85 in 10.0 mi Calm Calm - 0.02 in Rain Light Rain
9:54 AM 45.0 °F - 43.0 °F 93% 29.83 in 10.0 mi Calm Calm - 0.01 in   Overcast
10:01 AM 45.0 °F 43.5 °F 43.0 °F 93% 29.83 in 10.0 mi NNW 3.5 mph - N/A   Overcast
10:54 AM 45.0 °F - 44.1 °F 97% 29.82 in 2.0 mi Calm Calm - 0.00 in Rain Light Rain
11:23 AM 46.0 °F 44.8 °F 44.1 °F 93% 29.82 in 2.0 mi SW 3.5 mph - 0.01 in Rain Light Rain
11:54 AM 46.0 °F - 45.0 °F 96% 29.79 in 2.0 mi Calm Calm - 0.03 in Rain Light Rain
12:19 PM 46.0 °F 43.9 °F 45.0 °F 96% 29.78 in 7.0 mi WSW 4.6 mph - 0.01 in Rain Light Rain
12:45 PM 46.9 °F - 45.0 °F 93% 29.75 in 10.0 mi Calm Calm - 0.01 in Rain Light Rain
12:54 PM 46.9 °F - 45.0 °F 93% 29.75 in 10.0 mi Calm Calm - 0.01 in   Overcast
1:35 PM 48.0 °F - 45.0 °F 89% 29.69 in 10.0 mi ESE 3.5 mph - N/A   Mostly Cloudy
1:54 PM 46.9 °F - 46.0 °F 97% 29.70 in 10.0 mi Calm Calm - N/A   Overcast
2:13 PM 46.9 °F - 45.0 °F 93% 29.69 in 10.0 mi ESE 4.6 mph - 0.00 in Rain Light Rain
2:54 PM 48.0 °F - 45.0 °F 89% 29.69 in 5.0 mi Calm Calm - 0.00 in Rain Light Rain
3:08 PM 48.0 °F - 46.0 °F 93% 29.68 in 6.0 mi Calm Calm - 0.00 in   Overcast
3:47 PM 48.0 °F - 46.0 °F 93% 29.67 in 9.0 mi Variable 3.5 mph - 0.00 in   Overcast
3:54 PM 48.0 °F - 46.0 °F 93% 29.68 in 10.0 mi SSE 5.8 mph - 0.00 in   Overcast
4:47 PM 48.0 °F - 46.9 °F 96% 29.66 in 1.0 mi South 3.5 mph - N/A   Overcast
4:54 PM 48.0 °F - 46.9 °F 96% 29.66 in 1.0 mi SE 6.9 mph - N/A   Overcast
5:32 PM 48.0 °F - 46.9 °F 96% 29.64 in 5.0 mi SE 8.1 mph - N/A   Overcast
5:54 PM 48.0 °F - 46.9 °F 96% 29.65 in 5.0 mi SSE 9.2 mph - N/A   Overcast
6:54 PM 48.9 °F - 46.9 °F 93% 29.63 in 10.0 mi SE 10.4 mph - N/A   Overcast
7:36 PM 48.9 °F - 48.0 °F 97% 29.63 in 10.0 mi Calm Calm - N/A   Overcast
7:54 PM 48.9 °F - 48.0 °F 97% 29.64 in 10.0 mi Variable 3.5 mph - N/A   Overcast
8:54 PM 48.9 °F - 46.9 °F 93% 29.63 in 10.0 mi Calm Calm - N/A   Overcast
9:42 PM 48.9 °F - 46.9 °F 93% 29.62 in 10.0 mi ESE 8.1 mph - N/A   Overcast
9:54 PM 48.9 °F - 48.0 °F 97% 29.63 in 10.0 mi SSE 4.6 mph - N/A   Overcast
10:54 PM 48.9 °F - 46.9 °F 93% 29.66 in 10.0 mi North 12.7 mph - N/A   Overcast
11:05 PM 53.1 °F - 48.9 °F 86% 29.66 in 10.0 mi West 6.9 mph - N/A   Overcast
11:54 PM 53.1 °F - 44.1 °F 71% 29.70 in 10.0 mi WNW 17.3 mph 25.3 mph N/A   Mostly Cloudy